Location: Alafon
(8.4500°N, 4.2333°E)
Time: 17:44:12
(UTC+00:00)

Transit 2A - Pass Details

Date: 03 August 2021
Orbit: 595 x 964 km, 66.7° (Epoch: 18 September)

Event Time Altitude Azimuth Distance (km) Brightness Sun altitude
Rises 16:22:21 0° 318° (NW) 3,517 10.3 23.2°
Reaches altitude 10° 16:25:11 10° 307° (NW) 2,619 10.2 22.5°
Maximum altitude 16:30:14 27° 251° (WSW) 1,745 9.0 21.3°
Drops below altitude 10° 16:35:27 10° 196° (SSW) 2,693 8.9 20.0°
Sets 16:38:26 0° 184° (S) 3,635 9.4 19.3°
